カタログに戻る

TELSTAR 1

運用中通信UNKNOWN
NORAD 340·PAYLOAD·🇺🇸 United States

打ち上げ Jul 10, 1962 から Cape Canaveral Space Force Station

Loading…

次のパス (今後24時間)

TLE

最新Source: Space-Track

元期: Sep 12, 2026, 17:49 UTC

1 00340U 62029A   26255.74244267 -.00000104  00000-0 -59445-3 0  9999
2 00340  44.8039 157.1099 2427884 316.2741  54.3429  9.12894679140454

AllMySatでTELSTAR 1をリアルタイム追跡

Download on the App Store